Location: Boston
(42.3580°N, 71.0600°W)
Time: 13:21:40
(UTC-04:00)

Envisat - Pass Details

Date: 11 October 2017
Orbit: 764 x 766 km, 98.2° (Epoch: 23 October)

Event Time Altitude Azimuth Distance (km) Brightness Sun altitude
Exits shadow 20:30:43 79° 3° (N) 785 2.9 -26.9°
Drops below altitude 10° 20:35:30 10° 348° (NNW) 2,311 5.8 -27.8°
Sets 20:37:49 0° 348° (NNW) 3,241 6.6 -28.2°
